LDA316 URMM-USSS

Flight info

Callsign LDA316
Flight time 2h 21m
Altitude 39000
Route LARIN5M LARIN G481 NIRGA R807 UROBO P135 LOMBI LOMBI6R
Aircraft B736/M-SDE2E3FGHIRWXY/LB1

Departure

Time 2026-04-20 16:44
Airport Mineralnye Vody Airport (URMM)

Arrival

Time 2026-04-20 19:05
Airport Koltsovo Airport (USSS)
Time Latitude Longitude Altitude Speed Heading
2026-04-20 16:13 44.21733 43.09027 1050 ft 0 kts 212°
2026-04-20 16:35 44.21751 43.09042 1050 ft 4 kts 212°
2026-04-20 16:36 44.21768 43.09058 1050 ft 4 kts 211°
2026-04-20 16:36 44.21792 43.09073 1050 ft 4 kts 192°
2026-04-20 16:36 44.21817 43.09073 1050 ft 4 kts 147°
2026-04-20 16:36 44.21825 43.09065 1050 ft 2 kts 129°
2026-04-20 16:38 44.21824 43.09065 1050 ft 0 kts 129°
2026-04-20 16:39 44.21821 43.09072 1050 ft 2 kts 128°
2026-04-20 16:40 44.21808 43.09095 1050 ft 4 kts 126°
2026-04-20 16:40 44.21786 43.09141 1051 ft 7 kts 122°
2026-04-20 16:40 44.21757 43.09205 1051 ft 9 kts 122°
2026-04-20 16:40 44.21719 43.09286 1050 ft 11 kts 129°
2026-04-20 16:41 44.21663 43.09370 1050 ft 13 kts 126°
2026-04-20 16:41 44.21613 43.09482 1051 ft 14 kts 122°
2026-04-20 16:41 44.21556 43.09607 1050 ft 16 kts 122°
2026-04-20 16:41 44.21510 43.09751 1050 ft 17 kts 88°
2026-04-20 16:42 44.21537 43.09919 1050 ft 18 kts 77°
2026-04-20 16:42 44.21566 43.10095 1051 ft 19 kts 76°
2026-04-20 16:42 44.21627 43.10243 1050 ft 18 kts 32°
2026-04-20 16:42 44.21723 43.10322 1050 ft 14 kts 21°
2026-04-20 16:43 44.21781 43.10276 1053 ft 0 kts 302°
2026-04-20 16:43 44.21864 43.10096 1053 ft 63 kts 302°
2026-04-20 16:43 44.22248 43.09244 1072 ft 139 kts 302°
2026-04-20 16:44 44.22820 43.07960 1532 ft 163 kts 302°
2026-04-20 16:44 44.23424 43.06652 2598 ft 162 kts 303°
2026-04-20 16:44 44.24053 43.05253 3307 ft 184 kts 303°
2026-04-20 16:44 44.24799 43.03593 3610 ft 218 kts 302°
2026-04-20 16:45 44.25653 43.01697 4043 ft 243 kts 302°
2026-04-20 16:45 44.26564 42.99680 5118 ft 245 kts 302°
2026-04-20 16:45 44.27479 42.97657 6279 ft 248 kts 301°
2026-04-20 16:45 44.28402 42.95618 7364 ft 250 kts 300°
2026-04-20 16:46 44.29340 42.93546 8366 ft 255 kts 299°
2026-04-20 16:46 44.30517 42.91616 9279 ft 272 kts 320°
2026-04-20 16:46 44.32292 42.90556 10201 ft 289 kts 345°
2026-04-20 16:46 44.34391 42.90578 10718 ft 320 kts
2026-04-20 16:47 44.36642 42.91419 11043 ft 347 kts 14°
2026-04-20 16:47 44.38972 42.92484 11829 ft 356 kts 15°
2026-04-20 16:47 44.41325 42.93593 12821 ft 357 kts 15°
2026-04-20 16:47 44.43687 42.94689 13825 ft 359 kts 15°
2026-04-20 16:48 44.46083 42.95773 14598 ft 364 kts 14°
2026-04-20 16:48 44.48515 42.96854 15361 ft 369 kts 14°
2026-04-20 16:48 44.50981 42.97940 16141 ft 374 kts 14°
2026-04-20 16:48 44.53471 42.99032 16957 ft 377 kts 14°
2026-04-20 16:49 44.55989 43.00136 17780 ft 381 kts 14°
2026-04-20 16:49 44.58537 43.01254 18537 ft 385 kts 14°
2026-04-20 16:49 44.61071 43.02554 19157 ft 394 kts 23°
2026-04-20 16:49 44.63497 43.04411 19793 ft 401 kts 27°
2026-04-20 16:50 44.65910 43.06437 20435 ft 406 kts 28°
2026-04-20 16:50 44.68345 43.08514 21065 ft 412 kts 28°
2026-04-20 16:50 44.70814 43.10603 21683 ft 417 kts 28°
2026-04-20 16:50 44.73289 43.12669 22297 ft 422 kts 27°
2026-04-20 16:51 44.75838 43.14772 22916 ft 427 kts 27°
2026-04-20 16:51 44.78418 43.16888 23528 ft 432 kts 27°
2026-04-20 16:51 44.81034 43.19027 24050 ft 437 kts 27°
2026-04-20 16:51 44.83708 43.21214 24572 ft 442 kts 27°
2026-04-20 16:52 44.86394 43.23412 25024 ft 448 kts 27°
2026-04-20 16:52 44.89100 43.25631 25589 ft 451 kts 27°
2026-04-20 16:52 44.91817 43.27863 26147 ft 454 kts 27°
2026-04-20 16:52 44.94556 43.30115 26653 ft 458 kts 27°
2026-04-20 16:53 44.97282 43.32357 27132 ft 462 kts 27°
2026-04-20 16:53 45.00071 43.34646 27692 ft 464 kts 27°
2026-04-20 16:53 45.02872 43.36923 28217 ft 467 kts 27°
2026-04-20 16:53 45.05705 43.39219 28585 ft 473 kts 26°
2026-04-20 16:54 45.08676 43.41247 28993 ft 474 kts 18°
2026-04-20 16:54 45.11816 43.42607 29452 ft 472 kts
2026-04-20 16:54 45.15040 43.43494 29917 ft 473 kts
2026-04-20 16:54 45.18286 43.44321 30287 ft 477 kts
2026-04-20 16:55 45.21566 43.45156 30619 ft 480 kts
2026-04-20 16:55 45.24861 43.46020 30947 ft 483 kts
2026-04-20 16:55 45.28176 43.46915 31225 ft 487 kts
2026-04-20 16:55 45.31507 43.47833 31610 ft 488 kts
2026-04-20 16:56 45.34835 43.48760 32142 ft 485 kts
2026-04-20 16:56 45.38134 43.49682 32703 ft 482 kts
2026-04-20 16:56 45.41421 43.50598 33161 ft 481 kts
2026-04-20 16:56 45.44703 43.51510 33503 ft 482 kts
2026-04-20 16:57 45.47999 43.52426 33858 ft 482 kts
2026-04-20 16:57 45.51295 43.53346 34166 ft 483 kts
2026-04-20 16:57 45.54593 43.54270 34469 ft 483 kts
2026-04-20 16:57 45.57891 43.55196 34764 ft 483 kts
2026-04-20 16:58 45.61186 43.56122 35035 ft 484 kts
2026-04-20 16:58 45.64492 43.57053 35306 ft 484 kts
2026-04-20 16:58 45.67796 43.57984 35613 ft 484 kts
2026-04-20 16:58 45.71097 43.58915 35960 ft 482 kts
2026-04-20 16:59 45.74396 43.59846 36180 ft 484 kts
2026-04-20 16:59 45.77703 43.60780 36368 ft 486 kts
2026-04-20 16:59 45.81025 43.61720 36627 ft 486 kts
2026-04-20 16:59 45.84335 43.62658 36924 ft 485 kts
2026-04-20 17:00 45.90967 43.64541 37430 ft 486 kts
2026-04-20 17:00 45.94282 43.65484 37640 ft 486 kts
2026-04-20 17:00 45.97599 43.66429 37871 ft 487 kts
2026-04-20 17:01 46.00883 43.67368 38090 ft 488 kts
2026-04-20 17:01 46.04192 43.68398 38425 ft 486 kts
2026-04-20 17:01 46.07477 43.69491 38728 ft 484 kts
2026-04-20 17:01 46.10759 43.70609 38884 ft 485 kts 10°
2026-04-20 17:02 46.14054 43.71732 38982 ft 487 kts
2026-04-20 17:02 46.20632 43.73952 39010 ft 485 kts
2026-04-20 17:03 46.27232 43.76157 39028 ft 489 kts
2026-04-20 17:03 46.33881 43.78378 39020 ft 492 kts
2026-04-20 17:04 46.40563 43.80621 39010 ft 494 kts
2026-04-20 17:04 46.47261 43.82874 39006 ft 494 kts
2026-04-20 17:05 46.53950 43.85138 39006 ft 493 kts
2026-04-20 17:05 46.60624 43.87426 39004 ft 492 kts 10°
2026-04-20 17:06 46.67277 43.89717 39007 ft 491 kts 10°
2026-04-20 17:06 46.73918 43.92005 39017 ft 489 kts 10°
2026-04-20 17:07 46.80532 43.94288 39001 ft 488 kts 10°
2026-04-20 17:07 46.87137 43.96574 38998 ft 487 kts 10°
2026-04-20 17:08 46.93724 43.98860 39001 ft 486 kts 10°
2026-04-20 17:08 47.00300 44.01146 38997 ft 485 kts 10°
2026-04-20 17:09 47.06867 44.03434 39015 ft 485 kts 10°
2026-04-20 17:09 47.13432 44.05727 39006 ft 485 kts 10°
2026-04-20 17:10 47.19995 44.08026 38989 ft 484 kts 10°
2026-04-20 17:10 47.26536 44.10323 38986 ft 483 kts 10°
2026-04-20 17:11 47.33025 44.12607 38990 ft 482 kts 10°
2026-04-20 17:11 47.39590 44.14924 38991 ft 482 kts 10°
2026-04-20 17:12 47.46066 44.17215 38999 ft 482 kts 10°
2026-04-20 17:12 47.52583 44.19527 38986 ft 482 kts 10°
2026-04-20 17:13 47.59097 44.21844 38979 ft 481 kts 10°
2026-04-20 17:13 47.65612 44.24167 38981 ft 481 kts 10°
2026-04-20 17:14 47.71068 44.26117 38978 ft 482 kts 10°
2026-04-20 17:14 47.77543 44.28436 38973 ft 482 kts 10°
2026-04-20 17:15 47.84070 44.30781 38975 ft 483 kts 10°
2026-04-20 17:15 47.90601 44.33133 38973 ft 483 kts 10°
2026-04-20 17:16 47.97094 44.35774 38967 ft 485 kts 14°
2026-04-20 17:16 48.03515 44.38929 38965 ft 486 kts 15°
2026-04-20 17:17 48.09928 44.42122 38962 ft 486 kts 15°
2026-04-20 17:17 48.16351 44.45258 38955 ft 486 kts 15°
2026-04-20 17:18 48.22789 44.48377 38963 ft 486 kts 14°
2026-04-20 17:18 48.29227 44.51501 38957 ft 486 kts 14°
2026-04-20 17:19 48.35665 44.54639 38946 ft 486 kts 14°
2026-04-20 17:19 48.42096 44.57783 38948 ft 486 kts 15°
2026-04-20 17:20 48.48526 44.60934 38945 ft 486 kts 15°
2026-04-20 17:20 48.54948 44.64108 38942 ft 486 kts 15°
2026-04-20 17:21 48.61362 44.67325 38953 ft 486 kts 15°
2026-04-20 17:21 48.67783 44.70531 38947 ft 486 kts 15°
2026-04-20 17:22 48.74213 44.73699 38930 ft 486 kts 15°
2026-04-20 17:22 48.80640 44.76878 38933 ft 486 kts 15°
2026-04-20 17:23 48.87039 44.79961 38927 ft 485 kts 13°
2026-04-20 17:23 48.93545 44.82660 38929 ft 484 kts 11°
2026-04-20 17:24 49.00060 44.85304 38942 ft 485 kts 12°
2026-04-20 17:24 49.06576 44.88017 38922 ft 485 kts 12°
2026-04-20 17:25 49.13084 44.90770 38912 ft 486 kts 12°
2026-04-20 17:25 49.19597 44.93540 38913 ft 486 kts 12°
2026-04-20 17:26 49.26108 44.96314 38907 ft 486 kts 12°
2026-04-20 17:26 49.32622 44.99095 38899 ft 486 kts 12°
2026-04-20 17:27 49.39135 45.01883 38922 ft 486 kts 12°
2026-04-20 17:27 49.45659 45.04683 38905 ft 487 kts 12°
2026-04-20 17:28 49.52185 45.07492 38895 ft 487 kts 12°
2026-04-20 17:28 49.58715 45.10311 38896 ft 487 kts 12°
2026-04-20 17:29 49.65247 45.13138 38882 ft 487 kts 13°
2026-04-20 17:29 49.71777 45.15979 38890 ft 487 kts 13°
2026-04-20 17:30 49.78301 45.18839 38898 ft 487 kts 13°
2026-04-20 17:30 49.84828 45.21707 38880 ft 488 kts 13°
2026-04-20 17:31 49.91361 45.24584 38878 ft 488 kts 13°
2026-04-20 17:31 49.97885 45.27465 38872 ft 487 kts 13°
2026-04-20 17:32 50.04424 45.30232 38863 ft 486 kts 10°
2026-04-20 17:32 50.11018 45.32472 38865 ft 485 kts
2026-04-20 17:33 50.17629 45.34616 38856 ft 485 kts
2026-04-20 17:33 50.24219 45.36819 38857 ft 485 kts
2026-04-20 17:34 50.30759 45.39055 38853 ft 485 kts
2026-04-20 17:34 50.37354 45.41324 38851 ft 485 kts
2026-04-20 17:35 50.43935 45.43592 38846 ft 485 kts 10°
2026-04-20 17:35 50.50539 45.45872 38839 ft 485 kts 10°
2026-04-20 17:36 50.57134 45.48155 38859 ft 485 kts 10°
2026-04-20 17:36 50.63731 45.50446 38843 ft 485 kts 10°
2026-04-20 17:37 50.70328 45.52744 38833 ft 485 kts 10°
2026-04-20 17:37 50.76915 45.55044 38832 ft 485 kts 10°
2026-04-20 17:38 50.83507 45.57372 38824 ft 485 kts 10°
2026-04-20 17:38 50.90082 45.59727 38825 ft 485 kts 10°
2026-04-20 17:39 50.96672 45.62091 38822 ft 485 kts 11°
2026-04-20 17:39 51.03236 45.64584 38808 ft 486 kts 16°
2026-04-20 17:40 51.09450 45.68879 38805 ft 488 kts 24°
2026-04-20 17:40 51.15553 45.73622 38808 ft 488 kts 25°
2026-04-20 17:41 51.21661 45.78306 38805 ft 488 kts 24°
2026-04-20 17:41 51.27803 45.82946 38795 ft 488 kts 24°
2026-04-20 17:42 51.33940 45.87577 38794 ft 488 kts 24°
2026-04-20 17:42 51.40086 45.92234 38795 ft 489 kts 24°
2026-04-20 17:43 51.46232 45.96909 38795 ft 489 kts 24°
2026-04-20 17:43 51.52384 46.01602 38780 ft 489 kts 25°
2026-04-20 17:44 51.58267 46.07062 38766 ft 490 kts 39°
2026-04-20 17:44 51.63401 46.14255 38773 ft 490 kts 42°
2026-04-20 17:45 51.68482 46.21545 38774 ft 489 kts 41°
2026-04-20 17:45 51.73609 46.28759 38771 ft 489 kts 41°
2026-04-20 17:46 51.78739 46.35948 38775 ft 489 kts 41°
2026-04-20 17:46 51.83525 46.43711 38776 ft 487 kts 52°
2026-04-20 17:47 51.87604 46.52374 38767 ft 487 kts 54°
2026-04-20 17:47 51.91763 46.61140 38759 ft 488 kts 53°
2026-04-20 17:48 51.95967 46.69877 38767 ft 495 kts 53°
2026-04-20 17:48 52.00194 46.78769 38769 ft 500 kts 53°
2026-04-20 17:49 52.04408 46.87675 38764 ft 501 kts 53°
2026-04-20 17:49 52.08657 46.96673 38757 ft 502 kts 53°
2026-04-20 17:50 52.12901 47.05694 38754 ft 502 kts 53°
2026-04-20 17:50 52.17134 47.14719 38751 ft 501 kts 53°
2026-04-20 17:51 52.21353 47.23737 38740 ft 500 kts 54°
2026-04-20 17:51 52.25558 47.32755 38745 ft 499 kts 54°
2026-04-20 17:52 52.29762 47.41802 38747 ft 499 kts 54°
2026-04-20 17:52 52.33947 47.50840 38737 ft 499 kts 54°
2026-04-20 17:53 52.38126 47.59886 38730 ft 498 kts 54°
2026-04-20 17:53 52.42293 47.68937 38732 ft 498 kts 54°
2026-04-20 17:54 52.46452 47.78005 38728 ft 498 kts 54°
2026-04-20 17:54 52.50608 47.87098 38722 ft 497 kts 54°
2026-04-20 17:55 52.54751 47.96196 38715 ft 498 kts 54°
2026-04-20 17:55 52.58891 48.05317 38711 ft 497 kts 54°
2026-04-20 17:56 52.63021 48.14449 38720 ft 498 kts 55°
2026-04-20 17:56 52.67145 48.23605 38706 ft 498 kts 55°
2026-04-20 17:57 52.71262 48.32780 38698 ft 498 kts 55°
2026-04-20 17:57 52.75379 48.41986 38707 ft 499 kts 55°
2026-04-20 17:58 52.79494 48.51223 38697 ft 499 kts 55°
2026-04-20 17:58 52.83604 48.60481 38691 ft 500 kts 55°
2026-04-20 17:59 52.87708 48.69759 38678 ft 500 kts 55°
2026-04-20 17:59 52.91804 48.79052 38683 ft 500 kts 56°
2026-04-20 18:00 52.95206 48.86804 38685 ft 500 kts 56°
2026-04-20 18:00 52.99940 48.97690 38677 ft 500 kts 56°
2026-04-20 18:01 53.03341 49.05547 38663 ft 500 kts 56°
2026-04-20 18:01 53.07399 49.14939 38665 ft 501 kts 56°
2026-04-20 18:02 53.11462 49.24359 38656 ft 501 kts 56°
2026-04-20 18:02 53.15525 49.33789 38658 ft 501 kts 56°
2026-04-20 18:03 53.19553 49.43170 38640 ft 501 kts 56°
2026-04-20 18:03 53.23600 49.52638 38638 ft 501 kts 56°
2026-04-20 18:04 53.27639 49.62122 38643 ft 501 kts 56°
2026-04-20 18:04 53.31670 49.71625 38629 ft 501 kts 56°
2026-04-20 18:05 53.37704 49.85917 38618 ft 501 kts 56°
2026-04-20 18:05 53.41716 49.95464 38628 ft 501 kts 57°
2026-04-20 18:06 53.45728 50.05046 38633 ft 502 kts 57°
2026-04-20 18:06 53.49728 50.14635 38636 ft 501 kts 57°
2026-04-20 18:07 53.53717 50.24251 38638 ft 501 kts 57°
2026-04-20 18:07 53.57683 50.33885 38610 ft 501 kts 57°
2026-04-20 18:08 53.61647 50.43557 38615 ft 501 kts 57°
2026-04-20 18:08 53.65602 50.53236 38609 ft 501 kts 57°
2026-04-20 18:09 53.69551 50.62936 38600 ft 502 kts 57°
2026-04-20 18:09 53.73490 50.72649 38612 ft 502 kts 57°
2026-04-20 18:10 53.77428 50.82397 38614 ft 502 kts 57°
2026-04-20 18:10 53.81358 50.92163 38618 ft 502 kts 57°
2026-04-20 18:11 53.85284 51.01960 38612 ft 503 kts 57°
2026-04-20 18:11 53.89203 51.11774 38615 ft 503 kts 57°
2026-04-20 18:12 53.93088 51.21544 38618 ft 503 kts 57°
2026-04-20 18:12 53.96990 51.31394 38621 ft 503 kts 58°
2026-04-20 18:13 54.00900 51.41258 38612 ft 503 kts 56°
2026-04-20 18:13 54.05167 51.50694 38624 ft 503 kts 52°
2026-04-20 18:14 54.09571 51.59949 38629 ft 503 kts 52°
2026-04-20 18:14 54.13945 51.69255 38633 ft 503 kts 52°
2026-04-20 18:15 54.18279 51.78623 38633 ft 503 kts 53°
2026-04-20 18:15 54.22594 51.88016 38644 ft 503 kts 53°
2026-04-20 18:16 54.26906 51.97431 38644 ft 503 kts 53°
2026-04-20 18:16 54.31212 52.06861 38660 ft 503 kts 53°
2026-04-20 18:17 54.35513 52.16320 38644 ft 503 kts 53°
2026-04-20 18:17 54.39812 52.25809 38649 ft 505 kts 53°
2026-04-20 18:18 54.44119 52.35353 38668 ft 506 kts 53°
2026-04-20 18:18 54.48419 52.44939 38664 ft 507 kts 53°
2026-04-20 18:19 54.52719 52.54568 38659 ft 508 kts 54°
2026-04-20 18:19 54.56983 52.64151 38665 ft 507 kts 53°
2026-04-20 18:20 54.61274 52.73825 38664 ft 508 kts 53°
2026-04-20 18:20 54.65368 52.83709 38658 ft 506 kts 60°
2026-04-20 18:21 54.68769 52.94357 38667 ft 505 kts 63°
2026-04-20 18:21 54.72083 53.05066 38670 ft 504 kts 63°
2026-04-20 18:22 54.75448 53.15684 38673 ft 503 kts 62°
2026-04-20 18:22 54.78835 53.26301 38676 ft 503 kts 62°
2026-04-20 18:23 54.82199 53.36918 38678 ft 502 kts 63°
2026-04-20 18:23 54.85532 53.47546 38671 ft 501 kts 63°
2026-04-20 18:24 54.88853 53.58184 38688 ft 501 kts 63°
2026-04-20 18:24 54.92166 53.68828 38690 ft 500 kts 63°
2026-04-20 18:25 54.95464 53.79476 38695 ft 500 kts 63°
2026-04-20 18:25 54.98749 53.90126 38694 ft 500 kts 63°
2026-04-20 18:26 55.02028 54.00806 38708 ft 499 kts 63°
2026-04-20 18:26 55.05288 54.11471 38696 ft 498 kts 63°
2026-04-20 18:27 55.08535 54.22142 38705 ft 498 kts 63°
2026-04-20 18:27 55.11746 54.32744 38712 ft 497 kts 63°
2026-04-20 18:28 55.14973 54.43446 38710 ft 497 kts 63°
2026-04-20 18:28 55.18189 54.54154 38709 ft 497 kts 63°
2026-04-20 18:29 55.21402 54.64881 38717 ft 497 kts 63°
2026-04-20 18:29 55.24606 54.75617 38708 ft 498 kts 64°
2026-04-20 18:30 55.27804 54.86379 38716 ft 498 kts 64°
2026-04-20 18:30 55.31000 54.97174 38716 ft 499 kts 64°
2026-04-20 18:31 55.34195 55.08013 38723 ft 500 kts 64°
2026-04-20 18:31 55.37380 55.18865 38724 ft 500 kts 64°
2026-04-20 18:32 55.40564 55.29769 38710 ft 501 kts 64°
2026-04-20 18:32 55.43739 55.40711 38725 ft 503 kts 64°
2026-04-20 18:33 55.46912 55.51699 38719 ft 504 kts 64°
2026-04-20 18:33 55.50081 55.62727 38721 ft 504 kts 64°
2026-04-20 18:34 55.53244 55.73781 38709 ft 505 kts 64°
2026-04-20 18:34 55.56395 55.84849 38717 ft 504 kts 64°
2026-04-20 18:35 55.59533 55.95919 38718 ft 504 kts 64°
2026-04-20 18:35 55.62658 56.07000 38723 ft 503 kts 64°
2026-04-20 18:36 55.65772 56.18094 38726 ft 503 kts 64°
2026-04-20 18:36 55.68869 56.29181 38726 ft 502 kts 64°
2026-04-20 18:37 55.71952 56.40271 38732 ft 501 kts 64°
2026-04-20 18:37 55.74999 56.51284 38745 ft 500 kts 64°
2026-04-20 18:38 55.78074 56.62456 38743 ft 500 kts 64°
2026-04-20 18:38 55.81096 56.73479 38743 ft 500 kts 64°
2026-04-20 18:39 55.84133 56.84591 38755 ft 500 kts 65°
2026-04-20 18:39 55.87173 56.95738 38769 ft 501 kts 65°
2026-04-20 18:40 55.90200 57.06892 38758 ft 496 kts 65°
2026-04-20 18:40 55.93184 57.17945 38774 ft 489 kts 65°
2026-04-20 18:41 55.96096 57.28782 38802 ft 487 kts 65°
2026-04-20 18:41 55.99008 57.39715 38226 ft 493 kts 65°
2026-04-20 18:42 56.00470 57.45245 37533 ft 491 kts 65°
2026-04-20 18:42 56.01922 57.50753 36830 ft 490 kts 66°
2026-04-20 18:42 56.03369 57.56255 36127 ft 489 kts 66°
2026-04-20 18:42 56.04812 57.61752 35360 ft 489 kts 66°
2026-04-20 18:43 56.06261 57.67282 34569 ft 491 kts 66°
2026-04-20 18:43 56.07711 57.72831 33668 ft 495 kts 67°
2026-04-20 18:43 56.09172 57.78435 32680 ft 498 kts 67°
2026-04-20 18:43 56.10632 57.84047 31726 ft 499 kts 67°
2026-04-20 18:44 56.12102 57.89710 30800 ft 500 kts 67°
2026-04-20 18:44 56.13556 57.95321 30081 ft 495 kts 67°
2026-04-20 18:44 56.15008 58.00923 29164 ft 493 kts 67°
2026-04-20 18:44 56.16440 58.06452 28430 ft 486 kts 67°
2026-04-20 18:45 56.17852 58.11911 27766 ft 478 kts 67°
2026-04-20 18:45 56.19238 58.17288 27099 ft 472 kts 66°
2026-04-20 18:45 56.20606 58.22613 26436 ft 466 kts 66°
2026-04-20 18:45 56.21953 58.27871 25805 ft 460 kts 66°
2026-04-20 18:46 56.23283 58.33071 25167 ft 455 kts 66°
2026-04-20 18:46 56.24596 58.38222 24548 ft 451 kts 66°
2026-04-20 18:46 56.25877 58.43251 23936 ft 447 kts 66°
2026-04-20 18:46 56.27161 58.48304 23294 ft 443 kts 66°
2026-04-20 18:47 56.28437 58.53340 22584 ft 439 kts 66°
2026-04-20 18:47 56.29706 58.58355 22135 ft 429 kts 66°
2026-04-20 18:47 56.30914 58.63141 21560 ft 424 kts 66°
2026-04-20 18:47 56.32119 58.67923 20979 ft 419 kts 66°
2026-04-20 18:48 56.33323 58.72715 20377 ft 416 kts 66°
2026-04-20 18:48 56.34508 58.77441 19783 ft 412 kts 66°
2026-04-20 18:48 56.35683 58.82135 19202 ft 409 kts 66°
2026-04-20 18:48 56.36844 58.86784 18644 ft 406 kts 66°
2026-04-20 18:49 56.37999 58.91418 18019 ft 404 kts 66°
2026-04-20 18:49 56.39143 58.96018 17383 ft 400 kts 66°
2026-04-20 18:49 56.40274 59.00572 16787 ft 396 kts 66°
2026-04-20 18:49 56.41392 59.05085 16216 ft 391 kts 66°
2026-04-20 18:50 56.42137 59.08095 15846 ft 388 kts 66°
2026-04-20 18:50 56.43226 59.12533 15288 ft 384 kts 67°
2026-04-20 18:50 56.44216 59.16959 14856 ft 377 kts 69°
2026-04-20 18:50 56.45142 59.21367 14325 ft 373 kts 70°
2026-04-20 18:51 56.46046 59.25749 13785 ft 370 kts 70°
2026-04-20 18:51 56.46942 59.30095 13192 ft 368 kts 70°
2026-04-20 18:51 56.47834 59.34400 12623 ft 364 kts 70°
2026-04-20 18:51 56.48722 59.38669 12054 ft 361 kts 71°
2026-04-20 18:52 56.49595 59.42855 11522 ft 357 kts 71°
2026-04-20 18:52 56.50467 59.47039 10984 ft 354 kts 71°
2026-04-20 18:52 56.51330 59.51177 10512 ft 349 kts 71°
2026-04-20 18:52 56.52165 59.55183 10386 ft 334 kts 71°
2026-04-20 18:53 56.52969 59.59048 10226 ft 321 kts 72°
2026-04-20 18:53 56.53739 59.62756 10096 ft 309 kts 72°
2026-04-20 18:53 56.54481 59.66340 9958 ft 298 kts 72°
2026-04-20 18:53 56.55198 59.69815 9693 ft 293 kts 72°
2026-04-20 18:54 56.55910 59.73273 9321 ft 292 kts 73°
2026-04-20 18:54 56.56613 59.76698 8978 ft 289 kts 73°
2026-04-20 18:54 56.57312 59.80102 8646 ft 287 kts 73°
2026-04-20 18:54 56.58006 59.83484 8314 ft 284 kts 73°
2026-04-20 18:55 56.58692 59.86831 8003 ft 282 kts 73°
2026-04-20 18:55 56.59374 59.90161 7673 ft 280 kts 73°
2026-04-20 18:55 56.60048 59.93463 7387 ft 278 kts 73°
2026-04-20 18:55 56.60707 59.96693 7210 ft 271 kts 73°
2026-04-20 18:56 56.61353 59.99859 7100 ft 261 kts 74°
2026-04-20 18:56 56.61972 60.02903 6984 ft 252 kts 74°
2026-04-20 18:56 56.62583 60.05855 6809 ft 249 kts 73°
2026-04-20 18:56 56.63248 60.08768 6601 ft 250 kts 72°
2026-04-20 18:57 56.63930 60.11690 6382 ft 253 kts 72°
2026-04-20 18:57 56.64615 60.14634 6157 ft 252 kts 72°
2026-04-20 18:57 56.65293 60.17556 5915 ft 249 kts 72°
2026-04-20 18:57 56.65960 60.20439 5681 ft 247 kts 72°
2026-04-20 18:58 56.66597 60.23209 5460 ft 244 kts 72°
2026-04-20 18:58 56.67249 60.26047 5248 ft 241 kts 72°
2026-04-20 18:58 56.67891 60.28855 5039 ft 240 kts 72°
2026-04-20 18:58 56.68527 60.31639 4831 ft 238 kts 72°
2026-04-20 18:59 56.69165 60.34428 4606 ft 238 kts 71°
2026-04-20 18:59 56.70021 60.37018 4396 ft 241 kts 56°
2026-04-20 18:59 56.71065 60.39377 4186 ft 238 kts 56°
2026-04-20 18:59 56.72073 60.41736 3968 ft 234 kts 57°
2026-04-20 19:00 56.73056 60.44073 3765 ft 231 kts 57°
2026-04-20 19:00 56.74016 60.46391 3561 ft 227 kts 61°
2026-04-20 19:00 56.74493 60.48982 3344 ft 211 kts 90°
2026-04-20 19:00 56.74532 60.51582 3153 ft 200 kts 91°
2026-04-20 19:01 56.74558 60.54037 2982 ft 189 kts 91°
2026-04-20 19:01 56.74556 60.56348 2820 ft 174 kts 91°
2026-04-20 19:01 56.74547 60.58451 2652 ft 158 kts 90°
2026-04-20 19:01 56.74538 60.60382 2526 ft 152 kts 89°
2026-04-20 19:02 56.74531 60.62250 2423 ft 142 kts 88°
2026-04-20 19:02 56.74524 60.63928 2417 ft 123 kts 88°
2026-04-20 19:02 56.74518 60.65419 2277 ft 109 kts 88°
2026-04-20 19:02 56.74515 60.66749 2109 ft 102 kts 88°
2026-04-20 19:03 56.74510 60.68058 1945 ft 105 kts 88°
2026-04-20 19:03 56.74506 60.69434 1792 ft 111 kts 87°
2026-04-20 19:03 56.74502 60.70843 1603 ft 113 kts 88°
2026-04-20 19:03 56.74508 60.72259 1419 ft 110 kts 83°
2026-04-20 19:04 56.74485 60.73679 1265 ft 116 kts 91°
2026-04-20 19:04 56.74492 60.75133 1118 ft 115 kts 83°
2026-04-20 19:04 56.74481 60.76585 950 ft 116 kts 89°
2026-04-20 19:04 56.74475 60.78050 813 ft 114 kts 87°
2026-04-20 19:05 56.74480 60.79326 779 ft 71 kts 89°
2026-04-20 19:05 56.74478 60.79632 779 ft 0 kts 92°
2026-04-20 19:05 56.74478 60.79636 779 ft 1 kts 92°
2026-04-20 19:05 56.74478 60.79709 779 ft 11 kts 90°
2026-04-20 19:06 56.74478 60.79904 779 ft 20 kts 89°
2026-04-20 19:06 56.74477 60.80197 779 ft 25 kts 91°
2026-04-20 19:06 56.74476 60.80456 779 ft 20 kts 90°
2026-04-20 19:06 56.74515 60.80645 779 ft 17 kts 15°
2026-04-20 19:07 56.74605 60.80647 779 ft 5 kts 360°
2026-04-20 19:07 56.74609 60.80647 779 ft 0 kts 360°
2026-04-20 19:08 56.74614 60.80647 779 ft 2 kts
2026-04-20 19:08 56.74684 60.80647 779 ft 8 kts
2026-04-20 19:08 56.74741 60.80649 779 ft 8 kts
2026-04-20 19:09 56.74799 60.80648 779 ft 8 kts 359°
2026-04-20 19:09 56.74848 60.80611 779 ft 8 kts 303°
2026-04-20 19:09 56.74854 60.80514 779 ft 8 kts 270°
2026-04-20 19:09 56.74854 60.80431 779 ft 4 kts 276°
2026-04-20 19:10 56.74869 60.80396 779 ft 4 kts 327°
2026-04-20 19:10 56.74886 60.80388 779 ft 0 kts 352°
2026-04-20 19:11 56.74892 60.80386 778 ft 2 kts 352°
2026-04-20 19:11 56.74912 60.80385 778 ft 3 kts 359°
2026-04-20 19:11 56.74933 60.80385 778 ft 3 kts 360°
2026-04-20 19:12 56.74937 60.80385 778 ft 0 kts
2026-04-20 19:12 56.74940 60.80385 779 ft 0 kts 360°
2026-04-20 19:13 56.74936 60.80497 779 ft 0 kts 359°
2026-04-20 19:14 56.74920 60.80346 779 ft 0 kts